Location: Unspecified
(0.0000°N, 0.0000°E)
Time: 19:38:43
(UTC+00:00)

RS-15 - Pass Details

Date: 08 December 2017
Orbit: 1891 x 2154 km, 64.8° (Epoch: 20 July)

Event Time Altitude Azimuth Distance (km) Brightness Sun altitude
Exits shadow 01:16:20 21° 98° (E) 3,511 9.5 -59.4°
Drops below altitude 10° 01:20:35 10° 119° (ESE) 4,285 10.1 -58.7°
Sets 01:24:37 0° 131° (SE) 5,273 10.8 -58.0°
